This demonstration page uses our WeatherBlox Daily Observations layout. Learn more.

Left ArrowRight Arrow

38.83388, -104.82136

Hourly Observations for March 28, 2018

Temp ( °F °C ) Dew Point ( °F °C ) Humidity (%) Winds ( mph kmh ) Pressure ( in mb ) Visibility ( mi km ) Precip ( " mm )
12:58 am 00:58 Clear 31 -0.5 25 -3.8 79 79 Calm 29.66 1005 10 16 0.00 0.00
1:58 am 01:58 Clear 31 -0.7 25 -4 79 79 Calm 29.63 1004 10 16 0.00 0.00
2:58 am 02:58 Clear 29 -1.8 24 -4.4 83 83 S 3 6 29.62 1003 10 16 0.00 0.00
3:58 am 03:58 Clear 37 2.6 15 -9.2 42 42 NW 9 15 29.54 1000 10 16 0.00 0.00
4:58 am 04:58 Clear 39 4.1 11 -11.6 31 31 NW 15 24 29.54 1000 10 16 0.00 0.00
5:58 am 05:58 Clear 39 4.1 13 -10.6 34 34 NW 12 19 29.55 1001 10 16 0.00 0.00
6:58 am 06:58 Sunny 40 4.2 8 -13.2 27 27 NW 14 22 29.58 1002 10 16 0.00 0.00
7:58 am 07:58 Partly Cloudy 41 5 11 -11.8 29 29 N 7 11 29.61 1003 10 16 0.00 0.00
8:58 am 08:58 Partly Cloudy 43 6.1 11 -11.6 27 27 N 7 11 29.61 1003 10 16 0.00 0.00
9:58 am 09:58 Partly Cloudy 44 6.9 15 -9.6 30 30 NNE 12 19 29.59 1002 10 16 0.00 0.00
10:58 am 10:58 Mostly Cloudy 44 6.8 16 -8.8 32 32 NE 5 7 29.62 1003 10 16 0.00 0.00
11:58 am 11:58 Mostly Cloudy 43 6 20 -6.4 41 41 E 6 9 29.62 1003 10 16 0.00 0.00
12:58 pm 12:58 Mostly Cloudy 42 5.4 26 -3.4 53 53 ESE 10 17 29.61 1003 10 16 0.00 0.00
1:39 pm 13:39 Mostly Cloudy with Light Rain 41 5 25 -4 53 53 SE 7 11 29.60 1002 7 11 0.00 0.00
1:49 pm 13:49 Mostly Cloudy with Light Rain/Snow 39 4 27 -3 61 61 W 3 6 29.62 1003 4 6 0.00 0.00
1:58 pm 13:58 Cloudy with Light Rain/Snow 38 3.6 29 -1.8 68 68 WNW 3 6 29.60 1002 4 6 0.00 0.00
2:58 pm 14:58 Cloudy with Light Rain/Snow 39 3.7 30 -1 72 72 NNW 10 17 29.60 1002 10 16 0.00 0.00
3:03 pm 15:03 Cloudy with Light Rain/Snow 39 4 30 -1 70 70 NNW 8 13 29.60 1002 10 16 0.00 0.00
3:18 pm 15:18 Cloudy with Light Rain/Snow 39 4 30 -1 70 70 NNW 10 17 29.57 1001 10 16 0.00 0.00
3:38 pm 15:38 Cloudy with Light Snow Showers 36 2 34 1 93 93 NW 9 15 29.58 1002 2 3 0.00 0.00
3:58 pm 15:58 Cloudy with Light Snow Showers 34 1.1 33 0.5 96 96 NNW 12 19 29.57 1001 5 8 0.02 0.51
4:03 pm 16:03 Cloudy with Light Snow Showers 34 1 32 0 93 93 NNW 13 20 29.57 1001 5 8 0.00 0.00
4:18 pm 16:18 Cloudy with Light Snow 34 1 32 0 93 93 NW 6 9 29.58 1002 7 11 0.00 0.00
4:48 pm 16:48 Cloudy with Snow 34 1 34 1 100 100 NNW 8 13 29.55 1001 3 5 0.00 0.00
4:58 pm 16:58 Cloudy with Light Snow 34 1.3 33 0.6 95 95 NW 6 9 29.55 1001 6 10 0.04 1.02
5:03 pm 17:03 Cloudy with Light Snow 36 2 34 1 93 93 NNW 10 17 29.55 1001 5 8 0.00 0.00
5:18 pm 17:18 Mostly Cloudy with Light Snow 34 1 32 0 93 93 NNW 10 17 29.55 1001 6 10 0.00 0.00
5:23 pm 17:23 Mostly Cloudy with Light Rain/Snow 34 1 32 0 93 93 NNW 13 20 29.55 1001 10 16 0.00 0.00
5:58 pm 17:58 Cloudy with Light Snow 34 1.2 32 -0.2 91 91 NW 10 17 29.58 1002 1 2 0.01 0.25
6:00 pm 18:00 Cloudy with Light Snow Showers and Nearby Thunderstorms 34 1 32 0 93 93 NNW 10 17 29.58 1002 5 8 0.00 0.00
6:05 pm 18:05 Mostly Cloudy with Snow Showers 34 1 32 0 93 93 NW 9 15 29.58 1002 3 5 0.00 0.00
6:10 pm 18:10 Cloudy with Snow Showers 34 1 32 0 93 93 N 16 26 29.59 1002 5 8 0.00 0.00
6:25 pm 18:25 Cloudy with Light Rain/Snow 32 0 30 -1 93 93 N 18 30 29.61 1003 10 16 0.00 0.00
6:50 pm 18:50 Cloudy with Light Snow 32 0 30 -1 93 93 NNW 12 19 29.63 1003 1 2 0.00 0.00
6:58 pm 18:58 Cloudy with Snow 31 -0.7 29 -1.4 95 95 NNW 13 20 29.62 1003 5 8 0.02 0.51
7:13 pm 19:13 Cloudy with Light Snow 32 0 28 -2 87 87 NW 18 30 29.62 1003 7 11 0.00 0.00
7:24 pm 19:24 Mostly Cloudy with Light Rain/Snow 32 0 28 -2 87 87 NNW 18 30 29.62 1003 10 16 0.00 0.00
7:35 pm 19:35 Mostly Cloudy 32 0 28 -2 87 87 NW 14 22 29.62 1003 10 16 0.00 0.00
7:48 pm 19:48 Mostly Cloudy with Light Showers 32 0 28 -2 87 87 NW 15 24 29.62 1003 10 16 0.00 0.00
7:58 pm 19:58 Mostly Cloudy with Light Snow Showers 32 0 28 -2.4 84 84 NW 15 24 29.63 1003 10 16 0.02 0.51
8:13 pm 20:13 Cloudy with Light Snow Showers 32 0 28 -2 87 87 NW 12 19 29.64 1004 10 16 0.00 0.00
8:29 pm 20:29 Cloudy 32 0 28 -2 87 87 NW 15 24 29.65 1004 10 16 0.00 0.00
8:30 pm 20:30 Cloudy with Light Snow Showers 32 0 28 -2 87 87 NW 17 28 29.65 1004 10 16 0.00 0.00
8:49 pm 20:49 Mostly Cloudy 32 0 27 -3 80 80 NW 14 22 29.67 1005 10 16 0.00 0.00
8:58 pm 20:58 Mostly Cloudy 32 -0.2 27 -2.7 83 83 NW 13 20 29.67 1005 10 16 0.00 0.00
9:28 pm 21:28 Mostly Cloudy 30 -1 27 -3 86 86 NW 12 19 29.67 1005 10 16 0.00 0.00
9:53 pm 21:53 Mostly Cloudy 30 -1 28 -2 93 93 NW 17 28 29.68 1005 10 16 0.00 0.00
9:58 pm 21:58 Mostly Cloudy 31 -0.8 27 -2.6 88 88 NW 16 26 29.69 1006 10 16 0.00 0.00
10:11 pm 22:11 Cloudy with Light Snow 30 -1 27 -3 86 86 NW 12 19 29.68 1005 10 16 0.00 0.00
10:46 pm 22:46 Mostly Cloudy 30 -1 27 -3 86 86 NW 7 11 29.69 1006 10 16 0.00 0.00
10:56 pm 22:56 Mostly Cloudy 30 -1 27 -3 86 86 NW 8 13 29.70 1006 10 16 0.00 0.00
11:58 pm 23:58 Partly Cloudy 31 -0.5 25 -3.7 79 79 Calm 29.70 1006 10 16 0.00 0.00

Powered by AerisWeather